Weather History for High Island 179A, LA

Change the Weather History Date:

Wednesday, February 20, 2013

  Actual Average Record
Temperature  
Mean Temperature 66 °F -  
Max Temperature 66 °F - - ()
Min Temperature 66 °F - - ()
Cooling Degree Days 1    
Growing Degree Days 16 (Base 50)    
Moisture  
Dew Point 63 °F    
Average Humidity 88    
Maximum Humidity 88    
Minimum Humidity 88    
Precipitation  
Precipitation 0.00 in - - ()
Sea Level Pressure  
Sea Level Pressure 29.98 in    
Wind  
Wind Speed 29 mph (ESE)    
Max Wind Speed 37 mph    
Max Gust Speed 41 mph    
Visibility 6 miles    
Events      
T = Trace of Precipitation, MM = Missing Value Source: NWS Daily Summary

Daily Weather History Graph

Daily Weather History Graph

Search for Another Location

Airport:

Trip Planner

Search our weather history database for the weather conditions in past years. The results will help you decide how hot, cold, wet, or windy it might be!

Date:

Astronomy

Feb. 20, 2013 Rise Set
Actual Time 6:52 AM CST 6:11 PM CST
Civil Twilight 6:28 AM CST 6:35 PM CST
Nautical Twilight 6:00 AM CST 7:03 PM CST
Astronomical Twilight 5:32 AM CST 7:31 PM CST
Moon 1:47 PM CST (2/20) 2:59 AM CST (2/20)
Length of Visible Light 12h 07m
Length of Day
11h 19m
Waxing Gibbous, 76% of the Moon is Illuminated
Feb 20
Waxing Gibbous
Feb 25
Full
Mar 4
Last Quarter
Mar 11
New
Mar 19
First Quarter

Hourly Weather History & Observations

Time (CST) Temp. Dew Point Humidity Pressure Visibility Wind Dir Wind Speed Gust Speed Precip Events Conditions
12:15 AM 66.2 °F 62.6 °F 88% 30.12 in 10.0 mi ESE 25.3 mph - N/A   Clear
12:35 AM 66.2 °F 62.6 °F 88% 30.11 in 10.0 mi ESE 27.6 mph - N/A   Clear
12:55 AM 66.2 °F 62.6 °F 88% 30.09 in 10.0 mi ESE 27.6 mph - N/A   Clear
1:15 AM 66.2 °F 62.6 °F 88% 30.08 in 10.0 mi ESE 27.6 mph - N/A   Clear
1:35 AM 66.2 °F 62.6 °F 88% 30.07 in 10.0 mi ESE 31.1 mph - N/A   Clear
1:55 AM 66.2 °F 62.6 °F 88% 30.06 in 10.0 mi ESE 31.1 mph - N/A   Clear
2:15 AM 66.2 °F 62.6 °F 88% 30.06 in 10.0 mi ESE 29.9 mph - N/A   Clear
2:35 AM 66.2 °F 62.6 °F 88% 30.05 in - ESE 31.1 mph - N/A   Clear
2:55 AM 66.2 °F 62.6 °F 88% 30.05 in 10.0 mi ESE 31.1 mph - N/A   Clear
3:15 AM 66.2 °F 62.6 °F 88% 30.05 in 10.0 mi East 31.1 mph - N/A   Partly Cloudy
3:35 AM 66.2 °F 62.6 °F 88% 30.05 in 10.0 mi ESE 28.8 mph - N/A   Mostly Cloudy
3:55 AM 66.2 °F 62.6 °F 88% 30.05 in 10.0 mi ESE 28.8 mph - N/A   Unknown
4:15 AM 66.2 °F 62.6 °F 88% 30.07 in 10.0 mi East 26.5 mph 33.4 mph N/A   Scattered Clouds
4:35 AM 66.2 °F 62.6 °F 88% 30.06 in 10.0 mi East 28.8 mph - N/A   Scattered Clouds
4:55 AM 66.2 °F 62.6 °F 88% 30.07 in 10.0 mi ESE 28.8 mph - N/A   Partly Cloudy
5:15 AM 66.2 °F 62.6 °F 88% 30.08 in 10.0 mi ESE 28.8 mph - N/A   Clear
5:35 AM 66.2 °F 62.6 °F 88% 30.08 in 10.0 mi ESE 28.8 mph - N/A   Partly Cloudy
5:55 AM 66.2 °F 62.6 °F 88% 30.10 in 10.0 mi ESE 26.5 mph - N/A   Mostly Cloudy
6:15 AM 66.2 °F 62.6 °F 88% 30.09 in 10.0 mi ESE 27.6 mph - N/A   Partly Cloudy
6:35 AM 66.2 °F 62.6 °F 88% 30.09 in 10.0 mi ESE 29.9 mph - N/A   Clear
6:55 AM 66.2 °F 62.6 °F 88% 30.09 in 10.0 mi ESE 27.6 mph - N/A   Clear
7:15 AM 66.2 °F 62.6 °F 88% 30.11 in 10.0 mi ESE 25.3 mph - N/A   Clear
7:35 AM 66.2 °F 62.6 °F 88% 30.10 in 9.0 mi ESE 26.5 mph - N/A   Clear
7:55 AM 66.2 °F 62.6 °F 88% 30.09 in 9.0 mi ESE 26.5 mph - N/A   Clear
8:15 AM 66.2 °F 62.6 °F 88% 30.10 in 9.0 mi ESE 27.6 mph - N/A   Clear
8:35 AM 66.2 °F 62.6 °F 88% 30.08 in 9.0 mi ESE 27.6 mph - N/A   Clear
8:55 AM 66.2 °F 62.6 °F 88% 30.07 in 9.0 mi ESE 29.9 mph 38.0 mph N/A   Clear
9:15 AM 66.2 °F 62.6 °F 88% 30.05 in 9.0 mi ESE 35.7 mph - N/A   Clear
9:35 AM 66.2 °F 62.6 °F 88% 30.04 in 8.0 mi ESE 32.2 mph 39.1 mph N/A   Partly Cloudy
9:55 AM 66.2 °F 62.6 °F 88% 30.04 in 7.0 mi ESE 34.5 mph - N/A   Partly Cloudy
10:15 AM 66.2 °F 62.6 °F 88% 30.04 in 7.0 mi ESE 34.5 mph - N/A   Mostly Cloudy
10:35 AM 66.2 °F 62.6 °F 88% 30.02 in 6.0 mi ESE 35.7 mph - N/A   Haze
10:55 AM 66.2 °F 62.6 °F 88% 30.01 in 6.0 mi ESE 36.8 mph - N/A   Haze
11:15 AM 66.2 °F 62.6 °F 88% 30.00 in 5.0 mi SE 36.8 mph - N/A   Haze
11:35 AM 66.2 °F 62.6 °F 88% 29.99 in 5.0 mi SE 34.5 mph 41.4 mph N/A   Haze
11:55 AM 66.2 °F 62.6 °F 88% 29.98 in 4.0 mi SE 36.8 mph - N/A   Haze
12:15 PM 66.2 °F 62.6 °F 88% 29.97 in 4.0 mi SE 32.2 mph 39.1 mph N/A   Haze
12:35 PM 66.2 °F 62.6 °F 88% 29.96 in 4.0 mi SE 35.7 mph - N/A   Haze
12:55 PM 66.2 °F 62.6 °F 88% 29.96 in - SE 32.2 mph - N/A   Mostly Cloudy
1:15 PM 66.2 °F 62.6 °F 88% 29.95 in 4.0 mi SE 31.1 mph 38.0 mph N/A   Haze
1:35 PM 66.2 °F 62.6 °F 88% 29.95 in 4.0 mi SE 31.1 mph - N/A   Haze
1:55 PM 66.2 °F 62.6 °F 88% 29.95 in 3.0 mi SE 27.6 mph - N/A   Haze
2:15 PM 66.2 °F 62.6 °F 88% 29.95 in 3.0 mi SE 26.5 mph 33.4 mph N/A   Haze
2:35 PM 66.2 °F 62.6 °F 88% 29.94 in 4.0 mi SE 27.6 mph - N/A   Haze
3:15 PM 66.2 °F 62.6 °F 88% 29.91 in 3.0 mi SE 27.6 mph - N/A   Haze
3:35 PM 66.2 °F 62.6 °F 88% 29.90 in 3.0 mi SE 31.1 mph - N/A   Haze
3:55 PM 66.2 °F 62.6 °F 88% 29.89 in 3.0 mi ESE 27.6 mph 34.5 mph N/A   Haze
4:15 PM 66.2 °F 62.6 °F 88% 29.88 in 3.0 mi ESE 28.8 mph - N/A   Haze
4:35 PM 66.2 °F 62.6 °F 88% 29.87 in 4.0 mi SE 31.1 mph - N/A   Haze
4:55 PM 66.2 °F 62.6 °F 88% 29.87 in 3.0 mi SE 31.1 mph - N/A   Haze
5:15 PM 66.2 °F 62.6 °F 88% 29.85 in 3.0 mi SE 33.4 mph - N/A   Haze
5:55 PM 66.2 °F 62.6 °F 88% 29.85 in 3.0 mi SE 31.1 mph - N/A   Haze
6:15 PM 66.2 °F 62.6 °F 88% 29.86 in 4.0 mi SE 33.4 mph - N/A   Haze
6:35 PM 66.2 °F 62.6 °F 88% 29.85 in 4.0 mi SE 32.2 mph 39.1 mph N/A   Haze
6:55 PM 66.2 °F 62.6 °F 88% 29.86 in 4.0 mi SE 28.8 mph 35.7 mph N/A   Haze
7:35 PM 66.2 °F 62.6 °F 88% 29.85 in 4.0 mi SE 32.2 mph 38.0 mph N/A   Haze
7:55 PM 66.2 °F 62.6 °F 88% 29.86 in 4.0 mi SE 31.1 mph - N/A   Haze
8:15 PM 66.2 °F 62.6 °F 88% 29.86 in 4.0 mi SE 31.1 mph 40.3 mph N/A   Haze
8:35 PM 66.2 °F 62.6 °F 88% 29.85 in 3.0 mi SE 32.2 mph - N/A   Haze
8:55 PM 66.2 °F 62.6 °F 88% 29.85 in 4.0 mi SE 34.5 mph - N/A   Haze
9:35 PM 66.2 °F 62.6 °F 88% 29.86 in 3.0 mi SE 27.6 mph 34.5 mph N/A   Haze
9:55 PM 66.2 °F 62.6 °F 88% 29.86 in 3.0 mi SE 27.6 mph 34.5 mph N/A   Haze
10:15 PM 66.2 °F 62.6 °F 88% 29.85 in 3.0 mi SE 31.1 mph 38.0 mph N/A   Haze
10:35 PM 66.2 °F 62.6 °F 88% 29.84 in 3.0 mi SE 28.8 mph - N/A   Haze
10:55 PM 66.2 °F 62.6 °F 88% 29.83 in 3.0 mi SE 27.6 mph - N/A   Haze
11:15 PM 66.2 °F 62.6 °F 88% 29.83 in 3.0 mi SE 27.6 mph 34.5 mph N/A   Haze
11:35 PM 66.2 °F 62.6 °F 88% 29.81 in 3.0 mi SE 27.6 mph - N/A   Haze
11:55 PM 66.2 °F 62.6 °F 88% 29.79 in 3.0 mi SE 31.1 mph - N/A   Haze